Погода в Решетах

Россия / Новосибирская область     54°12′51″N   80°13′01″E
темп.,
°C
ветер,
м/с
пор.,
м/с
влажн.,
%
обл.,
%
осадки,
мм/ч
давл.,
гПа
погр.,
м
20 января, ср
ср2001:00−27сз2210014 0.0 102719
04:00−29с111000 0.0 102719
07:00−29всв22985 0.0 102919
10:00−28в229459 0.0 103019
13:00−24в239177 0.0 1030116
16:00−23в359289 0.0 1028130
19:00−21в589194 0.0 1027233
22:00−20вюв51088100 0.0 1025285
21 января, чт
чт2101:00−19вюв5997100 0.3 1022301
04:00−18юв3696100 0.8 1020238
07:00−19ююз339799 0.8 102050
10:00−19юз349997 0.0 102067
13:00−17юз489699 0.1 1020258
16:00−17юз3696100 0.0 1019149
19:00−18ююз2395100 0.0 101846
22:00−17ююз2494100 0.0 1016106
22 января, пт
пт2201:00−16юз2394100 0.0 101492
04:00−17зюз2295100 0.0 101339
07:00−18зсз2396100 0.0 101248
10:00−19зсз2296100 0.0 101354
13:00−20сз3496100 0.0 1013184
16:00−21сз3595100 0.0 1014232
19:00−24зсз2396100 0.0 101634
22:00−27з339887 0.0 101932
23 января, сб
сб2301:00−28зюз349893 0.0 102156
04:00−26юз4797100 0.0 1024230
07:00−25юз5897100 0.2 1025296
10:00−24юз4996100 0.2 1027308
13:00−22юз4795100 0.3 1028328
16:00−21ююз3696100 0.1 1029352
19:00−20ююз2399100 0.2 102965
22:00−20юз2299100 0.2 102929
24 января, вс
вс2401:00−20зюз129999 0.3 102920
04:00−22зсз239992 0.1 103035
07:00−24зсз349894 0.2 103288
10:00−26зсз369799 0.1 1035225
13:00−28з469799 0.1 1037260
16:00−30зюз3597100 0.0 1038245
19:00−31зюз3596100 0.0 1040112
22:00−33зюз239791 0.0 104019